(488) Kreusa
ephemeris date magn radius delta ra dec elong phase
Today5 Sep 202613.73.446 AU2.927 AU18h23m-29°42'112.8°15.6°
Opposition2 Sep 202713.23.670 AU2.687 AU23h09m-22°03'164.6°4.2°
(488) Kreusa - 2026-09-05
astro.vanbuitenen.nl


 
-1 year
-1 month
-1 day
Now
+1 day
+1 month
+1 year

The interactive orbit chart above shows the body's path through the solar system and its position at the given date. Green and blue lines are shown perpendicular to the ecliptic plane: Green if the path is above the ecliptic plane, blue if it is below. (Left-click and drag to rotate the view; Right-click and drag to move the view; Use scroll wheel to zoom in our out.)

The orbital elements of Kreusa are:

            e (Eccentricity)                : 0.1585153
            a (Semimajor axis)              : 3.1679551
            i (Inclination)                 : 11.47516
            Ω (Longitude of ascending node) : 82.98164
            ω (Argument of perihelion)      : 77.34559
            M (Mean anomaly)                : 100.69665
            Epoch                           : 2026 Jun 09

            L (Longitude of perihelion)     : 160.07768
            B (Latitude of perihelion)      : 11.19277
            P (Orbital period in years)     : 5.64            
        

The light curve chart below shows the estimated development of the minor planet's magnitude.


The all-sky chart below shows the path of the minor planet over the same period as the light curve. The current position is marked yellow.





The following chart shows the path of the minor planet in the next few days. The field of view is optimized for (~10x50) binoculars and finderscopes.




Ephemerides:
Date       Time       RA (2000)    DEC (2000)    delta   radius  elong  phase   PA    magn
2026-09-05 00:00 UT   18 23 10.5   -29 42 15     2.927    3.446  112.8   15.6    85   13.7 
2026-09-05 00:42 UT   18 23 10.9   -29 42 15     2.928    3.446  112.8   15.7    85   13.7 
2026-09-06 00:00 UT   18 23 22.8   -29 42 11     2.942    3.447  111.9   15.7    85   13.8 
2026-09-07 00:00 UT   18 23 36.4   -29 42 05     2.957    3.448  111.0   15.8    85   13.8 
2026-09-08 00:00 UT   18 23 51.2   -29 41 57     2.971    3.450  110.1   15.9    85   13.8 
2026-09-09 00:00 UT   18 24 07.3   -29 41 48     2.986    3.451  109.2   16.0    85   13.8 
2026-09-10 00:00 UT   18 24 24.7   -29 41 37     3.001    3.452  108.3   16.1    85   13.8 
2026-09-11 00:00 UT   18 24 43.3   -29 41 25     3.016    3.453  107.4   16.2    86   13.8 
2026-09-12 00:00 UT   18 25 03.2   -29 41 11     3.031    3.454  106.5   16.2    86   13.8 
2026-09-13 00:00 UT   18 25 24.2   -29 40 55     3.046    3.455  105.6   16.3    86   13.9 
2026-09-14 00:00 UT   18 25 46.5   -29 40 39     3.062    3.457  104.7   16.4    86   13.9 
2026-09-15 00:00 UT   18 26 10.0   -29 40 20     3.077    3.458  103.8   16.4    86   13.9 
2026-09-16 00:00 UT   18 26 34.7   -29 40 01     3.092    3.459  102.9   16.5    86   13.9 
2026-09-17 00:00 UT   18 27 00.6   -29 39 40     3.107    3.460  102.1   16.5    86   13.9 
2026-09-18 00:00 UT   18 27 27.6   -29 39 17     3.123    3.461  101.2   16.5    86   13.9 
2026-09-19 00:00 UT   18 27 55.7   -29 38 53     3.138    3.462  100.3   16.6    86   13.9 
2026-09-20 00:00 UT   18 28 25.0   -29 38 28     3.154    3.463   99.5   16.6    86   14.0 
2026-09-21 00:00 UT   18 28 55.4   -29 38 01     3.169    3.465   98.6   16.7    86   14.0 
2026-09-22 00:00 UT   18 29 26.9   -29 37 33     3.185    3.466   97.7   16.7    86   14.0 
2026-09-23 00:00 UT   18 29 59.5   -29 37 03     3.200    3.467   96.9   16.7    86   14.0 
2026-09-24 00:00 UT   18 30 33.1   -29 36 32     3.216    3.468   96.0   16.7    86   14.0 
2026-09-25 00:00 UT   18 31 07.8   -29 35 59     3.231    3.469   95.2   16.7    86   14.0 
2026-09-26 00:00 UT   18 31 43.6   -29 35 26     3.247    3.470   94.3   16.7    86   14.0 
2026-09-27 00:00 UT   18 32 20.4   -29 34 50     3.263    3.471   93.5   16.8    86   14.0 
2026-09-28 00:00 UT   18 32 58.2   -29 34 14     3.278    3.472   92.7   16.8    86   14.0 
2026-09-29 00:00 UT   18 33 37.0   -29 33 35     3.294    3.474   91.8   16.8    86   14.1 
2026-09-30 00:00 UT   18 34 16.8   -29 32 56     3.310    3.475   91.0   16.8    86   14.1 
2026-10-01 00:00 UT   18 34 57.5   -29 32 15     3.325    3.476   90.2   16.7    86   14.1 
2026-10-02 00:00 UT   18 35 39.2   -29 31 32     3.341    3.477   89.3   16.7    87   14.1 
2026-10-03 00:00 UT   18 36 21.9   -29 30 48     3.357    3.478   88.5   16.7    87   14.1 
2026-10-04 00:00 UT   18 37 05.5   -29 30 02     3.372    3.479   87.7   16.7    87   14.1 
2026-10-05 00:00 UT   18 37 50.1   -29 29 15     3.388    3.480   86.9   16.7    87   14.1 


    Terminology:
            
    delta:  distance between minor planet and earth in AU
    radius: distance between minor planet and sun in AU
    magn:   magnitude (brightness) estimate    
    ra:     right ascension in hours (24h = 360deg)
    dec:    declination in degrees
    elong:  elongation in degrees (angle sun-earth-minor planet)    
    phase:  phase angle in degrees (angle sun-minor planet-earth)        
    AU:     Astronomical Unit (mean distance between earth and sun: 149597870.7 km
    

Orbital elements provided by the MPC (Minor Planet Center).
Calculations by a modified version of AAPlus, a C# implementation of the AA+ project by PJ Naughter from the algorithms presented in the book "Astronomical Algorithms" by Jean Meeus.
NGC2000 dso catalog and star labels from VizieR as provided by the Strasbourg astronomical Data Center.
Tycho2 catalog from the ESO archive.